[[{"header":{"parameterUnit":"m.s-1","parameterCategory":1,"la1":30.2991,"la2":30.254,"lo1":-89.0895,"lo2":-89.0444,"dy":0.0017,"dx":0.0017,"nx":28,"ny":28,"refTime":"2024-07-08T09:00:00:Z","depth":0,"parameterNumber":2,"parameterNumberName":"U-component_of_WINDS"},"data":[0,0,0,0,0,0,0,0,0,0,0,0,0,0,0,0,0,0,0,0,0,0,0,0,0,0,0,0,0,0,0,0,0,0,0,0,0,0,0,0,0,0,0,0,0,0,0,0,0,0,0,0,0,0,0,0,0,0,2.3285,2.3285,0,2.3299,2.3299,2.3299,2.3238,2.3236,2.3234,2.3232,2.3245,2.3247,2.3249,0,0,0,0,0,0,0,0,0,0,0,0,0,2.3202,2.3204,2.3285,2.3285,2.3285,2.3299,2.3299,2.3299,2.3238,2.3236,2.3233,2.3231,2.3245,2.3247,2.325,0,0,0,0,0,0,0,0,0,0,0,0,0,2.3229,2.3204,2.3285,2.3256,2.3254,2.3299,2.3299,2.3299,2.3238,2.3236,2.3233,2.323,2.3244,2.3247,2.325,2.3323,0,0,2.3259,2.326,0,0,0,0,0,0,0,0,2.3228,2.3232,2.326,2.3258,2.3256,2.3264,2.3275,2.3307,2.3239,2.3244,2.3232,2.3229,2.3254,2.3256,2.3264,2.3323,2.3324,2.3259,2.3261,2.3263,2.3263,0,0,0,0,0,0,0,2.3226,2.3231,2.329,2.3261,2.3258,2.3242,2.3243,2.328,2.3264,2.3243,2.3239,2.3242,2.3252,2.3261,2.3264,2.3324,2.3259,2.3262,2.3264,2.3265,2.3441,2.3443,0,0,0,0,0,0,2.3228,2.323,2.329,2.3291,2.3235,2.3245,2.3246,2.3264,2.3263,2.3261,2.3244,2.3239,2.3258,2.3261,2.3264,2.3347,2.3263,2.3265,2.3267,2.3438,2.3441,2.3444,0,0,0,0,0,0,2.3227,2.3234,2.3289,2.3259,2.3265,2.325,2.327,2.3266,2.3275,2.3264,2.326,2.3257,2.3256,2.326,2.3308,2.3347,2.3267,2.3269,2.3435,2.3439,2.3443,2.3515,0,0,0,0,0,0,2.3224,2.3234,2.3262,2.326,2.3267,2.3334,2.3272,2.3268,2.3281,2.3274,2.3275,2.3272,2.3254,2.3304,2.3311,2.3349,2.3272,2.3431,2.3437,2.3442,2.3509,2.3521,2.3531,0,0,0,0,0,2.3222,2.3282,2.3264,2.3271,2.3302,2.3336,2.334,2.3317,2.3284,2.3311,2.3304,2.3272,2.3342,2.3309,2.3317,2.3357,2.3428,2.3435,2.3441,2.3504,2.3519,2.3531,0,0,0,0,0,0,2.3288,2.3281,2.3261,2.3323,2.333,2.3326,2.3359,2.3334,2.3351,2.3344,2.3316,2.3316,2.3369,2.3368,2.3332,2.3426,2.3379,2.3387,2.3424,2.3438,2.3449,2.3447,2.3274,0,0,0,0,0,2.331,2.3339,2.3331,2.3386,2.3391,2.3375,2.3389,2.3371,2.3378,2.3381,2.3377,2.3384,2.3407,2.3423,2.3444,2.3509,2.3507,2.354,2.3552,2.3561,2.3568,2.36,2.3613,2.3466,2.3465,2.3465,0,0,2.3355,2.3355,2.3375,2.34,2.3404,2.3433,2.3378,2.3412,2.3433,2.3386,2.343,2.3428,2.3434,2.349,2.3515,2.3491,2.3608,2.3569,2.3577,2.3578,2.3608,2.3622,2.3634,2.347,2.3469,2.3468,0,0,2.3452,2.3456,2.3501,2.3506,2.3513,2.3502,2.3513,2.3512,2.3508,2.3553,2.3517,2.3542,2.3583,2.3588,2.3596,2.3694,2.3665,2.3702,2.376,2.3791,2.3803,2.3813,2.3846,2.3858,2.3709,2.3709,2.371,0,2.3507,2.3551,2.3527,2.3563,2.3574,2.3533,2.3577,2.3584,2.3597,2.3605,2.3578,2.3628,2.363,2.3685,2.3709,2.3718,2.3728,2.3701,2.3803,2.3813,2.3822,2.3853,2.3866,2.3714,2.3713,2.3713,2.3712,0,2.3617,2.3648,2.3683,2.3696,2.3712,2.3752,2.3733,2.3752,2.3733,2.3724,2.3768,2.3769,2.3788,2.3801,2.3783,2.3854,2.3838,2.3809,2.376,2.3841,2.3869,2.3881,2.372,2.3718,2.3717,2.3716,0,0,2.3754,2.3754,2.3767,2.3772,2.3776,2.3799,2.3837,2.3856,2.3871,2.3882,2.3911,2.3947,2.3919,2.3928,2.391,2.3939,2.4013,2.3905,2.3904,2.3922,2.4088,2.4109,2.4123,2.3995,2.3997,2.3999,2.4087,0,2.3847,2.3911,2.3891,2.3955,2.3982,2.3944,2.3976,2.3982,2.3975,2.3996,2.3988,2.4013,2.3975,2.398,2.4007,2.3999,2.4046,2.3992,2.402,2.4021,2.4017,2.4138,2.416,2.4243,2.4098,2.41,2.4101,0,2.3963,2.3978,2.4045,2.4043,2.4054,2.4083,2.4098,2.412,2.4125,2.4118,2.4128,2.4104,2.414,2.4094,2.4141,2.4105,2.4116,2.4114,2.4116,2.4116,2.4064,2.4138,2.4269,2.428,2.4119,2.4117,2.4116,0,2.4052,2.409,2.4134,2.414,2.414,2.4161,2.4162,2.4165,2.4177,2.419,2.4197,2.4215,2.4224,2.4238,2.4219,2.4187,2.4268,2.4221,2.4261,2.4262,2.4278,2.4276,2.4409,2.429,2.4289,2.4289,2.4289,0,2.4156,2.4198,2.4174,2.4201,2.4246,2.4223,2.4268,2.4265,2.4267,2.4292,2.4261,2.4285,2.426,2.4281,2.4267,2.4307,2.4312,2.4306,2.4301,2.4307,2.4307,2.4311,2.4304,2.4293,2.4292,2.4291,2.4291,0,2.4263,2.4249,2.4294,2.429,2.429,2.4324,2.432,2.4344,2.4335,2.4367,2.4373,2.4359,2.4382,2.4365,2.4389,2.4379,2.4431,2.442,2.4429,2.4425,2.4465,2.446,2.4603,2.4619,2.4492,2.4493,2.4494,0,2.4328,2.4359,2.4359,2.4373,2.4376,2.44,2.4412,2.4391,2.4404,2.4412,2.4435,2.4456,2.4471,2.451,2.4501,2.4519,2.4506,2.4554,2.4508,2.4512,2.4503,2.45,2.4502,2.4563,2.4564,2.4566,2.4567,0,2.4444,2.4436,2.4455,2.4471,2.4487,2.4499,2.4508,2.4522,2.45,2.4517,2.454,2.4552,2.4576,2.4596,2.461,2.461,2.4584,2.4582,2.4591,2.4596,2.4599,2.4595,2.4451,2.4578,2.4577,2.4576,2.4575,2.4575,2.453,2.4555,2.4558,2.458,2.4585,2.4595,2.4616,2.461,2.463,2.4647,2.4634,2.4661,2.4665,2.4681,2.4684,2.4705,2.4684,2.4699,2.4702,2.4706,2.471,2.4599,2.4708,2.4707,2.4707,2.4707,2.4706,0,2.4642,2.4643,2.4663,2.4677,2.4694,2.467,2.4678,2.4694,2.4718,2.4724,2.474,2.4766,2.4786,2.4779,2.4796,2.4814,2.4802,2.4818,2.4815,2.4815,2.4728,2.4717,2.4827,2.4827,2.4827,2.4827,2.4827,2.4827,2.4702,2.4742,2.4734,2.4777,2.4776,2.4803,2.481,2.4818,2.4822,2.4853,2.4869,2.4865,2.4865,2.4882,2.4898,2.4896,2.4902,2.4923,2.4915,2.4834,2.4822,2.481,2.4799,2.4925,2.4925,2.5,2.5001,2.5001]},{"header":{"parameterUnit":"m.s-1","parameterCategory":1,"la1":30.2991,"la2":30.254,"lo1":-89.0895,"lo2":-89.0444,"dy":0.0017,"dx":0.0017,"nx":28,"ny":28,"refTime":"2024-07-08T09:00:00:Z","depth":0,"parameterNumber":3,"parameterNumberName":"V-component_of_WINDS"},"data":[0,0,0,0,0,0,0,0,0,0,0,0,0,0,0,0,0,0,0,0,0,0,0,0,0,0,0,0,0,0,0,0,0,0,0,0,0,0,0,0,0,0,0,0,0,0,0,0,0,0,0,0,0,0,0,0,0,0,6.1363,6.1364,0,6.154,6.1542,6.1544,6.1505,6.1502,6.1498,6.1495,6.1673,6.168,6.1688,0,0,0,0,0,0,0,0,0,0,0,0,0,6.0983,6.099,6.1362,6.1365,6.1367,6.154,6.1542,6.1545,6.1506,6.1502,6.1498,6.1494,6.167,6.1679,6.1689,0,0,0,0,0,0,0,0,0,0,0,0,0,6.1153,6.0992,6.1362,6.1368,6.1371,6.1539,6.1542,6.1545,6.1506,6.1501,6.1496,6.1492,6.1667,6.1678,6.169,6.1862,0,0,6.1726,6.1731,0,0,0,0,0,0,0,0,6.1143,6.1167,6.1365,6.1368,6.1371,6.1495,6.1473,6.1651,6.1508,6.1455,6.1495,6.1489,6.1617,6.1633,6.1677,6.187,6.1878,6.1727,6.1734,6.1739,6.1742,0,0,0,0,0,0,0,6.1131,6.1159,6.1432,6.1368,6.1372,6.136,6.1379,6.1507,6.1562,6.1459,6.1457,6.1478,6.1618,6.1666,6.1681,6.188,6.1726,6.1737,6.1744,6.1749,6.222,6.2225,0,0,0,0,0,0,6.1118,6.1149,6.1427,6.1438,6.1243,6.1371,6.1392,6.146,6.156,6.1571,6.1482,6.1476,6.1648,6.1667,6.1687,6.1893,6.1739,6.175,6.1757,6.2214,6.2221,6.2227,0,0,0,0,0,0,6.111,6.1143,6.142,6.1293,6.1327,6.1383,6.146,6.1467,6.1514,6.1578,6.1587,6.1522,6.1645,6.167,6.1818,6.1898,6.1755,6.1766,6.2208,6.2216,6.2224,6.2307,0,0,0,0,0,0,6.1099,6.114,6.1208,6.1295,6.1334,6.155,6.1465,6.1474,6.1535,6.1528,6.1617,6.1627,6.1643,6.1801,6.183,6.1912,6.1775,6.2201,6.2211,6.2221,6.2297,6.2317,6.2334,0,0,0,0,0,6.1086,6.1224,6.1212,6.1245,6.142,6.1555,6.1577,6.1594,6.1542,6.1609,6.1649,6.1624,6.1885,6.1816,6.1849,6.1935,6.2196,6.2208,6.222,6.2289,6.2313,6.2333,0,0,0,0,0,0,6.1145,6.1236,6.1223,6.1394,6.1467,6.1548,6.1634,6.162,6.1708,6.1698,6.1714,6.1734,6.1884,6.1924,6.1846,6.2105,6.2032,6.2052,6.2074,6.2097,6.2115,6.2102,6.1785,0,0,0,0,0,6.1178,6.1281,6.1355,6.1498,6.1536,6.1579,6.1638,6.1644,6.172,6.1751,6.1802,6.1875,6.1972,6.2037,6.2131,6.2303,6.232,6.2378,6.2396,6.2411,6.2427,6.2518,6.2544,6.2267,6.2267,6.2267,0,0,6.1247,6.1309,6.1374,6.1512,6.1569,6.1674,6.1605,6.1719,6.1796,6.1767,6.191,6.195,6.2032,6.2192,6.2265,6.223,6.2507,6.2426,6.2438,6.2446,6.2533,6.2559,6.2582,6.2276,6.2274,6.2273,0,0,6.1426,6.1485,6.161,6.1669,6.1757,6.1784,6.1813,6.1897,6.1922,6.2066,6.2045,6.2136,6.2305,6.2364,6.2416,6.2614,6.2593,6.2644,6.2739,6.2828,6.2849,6.2869,6.2937,6.2962,6.266,6.266,6.266,0,6.1501,6.166,6.1676,6.1792,6.1852,6.1831,6.1956,6.2011,6.2125,6.2165,6.2125,6.2335,6.2389,6.2561,6.2609,6.2653,6.2685,6.2634,6.2845,6.2865,6.2883,6.2949,6.2975,6.2666,6.2665,6.2664,6.2664,0,6.1746,6.1856,6.1946,6.2057,6.2126,6.2246,6.2278,6.2347,6.2346,6.2376,6.2521,6.2585,6.269,6.2731,6.2732,6.2902,6.2878,6.2841,6.2768,6.2915,6.2976,6.3002,6.2674,6.2672,6.267,6.2669,0,0,6.1969,6.2085,6.2118,6.2167,6.2261,6.2345,6.2462,6.2566,6.2623,6.2701,6.2798,6.2941,6.2907,6.2966,6.2972,6.305,6.32,6.3004,6.3006,6.3037,6.3389,6.3415,6.3444,6.3186,6.3191,6.3195,6.3381,0,6.2156,6.2365,6.2381,6.2568,6.2668,6.2648,6.275,6.2817,6.2848,6.2935,6.2968,6.3068,6.3017,6.3052,6.3128,6.3166,6.3271,6.3153,6.3275,6.3279,6.3254,6.3477,6.3506,6.3678,6.3406,6.341,6.3413,0,6.2402,6.2488,6.2685,6.2763,6.2805,6.2897,6.2991,6.3076,6.315,6.3167,6.3232,6.3227,6.3344,6.3267,6.3427,6.3347,6.3397,6.3423,6.343,6.3441,6.3354,6.3493,6.3734,6.3759,6.3451,6.3448,6.3445,0,6.2543,6.2708,6.2846,6.2889,6.2983,6.3047,6.3089,6.3159,6.3219,6.3301,6.3339,6.3434,6.3485,6.3557,6.3576,6.3519,6.3736,6.3661,6.3751,6.375,6.3797,6.3794,6.4048,6.3831,6.3831,6.3831,6.383,0,6.275,6.2871,6.2911,6.2996,6.313,6.3146,6.3277,6.3315,6.3376,6.3466,6.3454,6.3538,6.356,6.3647,6.3663,6.3792,6.3815,6.383,6.3833,6.3831,6.3829,6.3864,6.3852,6.3837,6.3836,6.3835,6.3833,0,6.293,6.2962,6.3112,6.3188,6.321,6.3305,6.3369,6.3449,6.3477,6.3591,6.3619,6.3662,6.3765,6.3791,6.3913,6.3923,6.4075,6.4067,6.4051,6.405,6.4138,6.4129,6.4423,6.4462,6.422,6.4223,6.4225,0,6.306,6.3152,6.3238,6.3298,6.3343,6.344,6.3501,6.3519,6.3583,6.3673,6.3742,6.3843,6.3924,6.4088,6.4129,6.4221,6.4214,6.4311,6.4228,6.4223,6.4214,6.4208,6.4216,6.4327,6.4329,6.4331,6.4333,0,6.3285,6.3296,6.3386,6.348,6.3554,6.3629,6.3701,6.375,6.3778,6.3849,6.3954,6.4018,6.4142,6.4241,6.4333,6.4374,6.4358,6.4359,6.4384,6.4383,6.4369,6.4376,6.4092,6.4352,6.435,6.4349,6.4348,6.4347,6.3443,6.3524,6.3596,6.3695,6.3751,6.3818,6.3897,6.3934,6.4022,6.4126,6.413,6.4243,6.4312,6.4435,6.448,6.4567,6.4537,6.4575,6.4584,6.4593,6.46,6.4356,6.4584,6.4583,6.4583,6.4582,6.4582,0,6.3667,6.3712,6.3803,6.3904,6.3982,6.396,6.4038,6.4103,6.4204,6.427,6.435,6.4468,6.4564,6.4612,6.4706,6.4766,6.4761,6.479,6.4785,6.4794,6.4621,6.4589,6.4792,6.4792,6.4792,6.4792,6.4792,6.4792,6.3793,6.3927,6.3945,6.4105,6.4149,6.4261,6.4307,6.4367,6.4419,6.4553,6.4632,6.4663,6.4721,6.4819,6.4904,6.4915,6.495,6.4983,6.499,6.4828,6.4807,6.4786,6.4756,6.4991,6.4991,6.5156,6.5157,6.5158]}]]